[[{"header":{"parameterUnit":"m.s-1","parameterCategory":1,"la1":30.2991,"la2":30.254,"lo1":-89.0895,"lo2":-89.0444,"dy":0.0017,"dx":0.0017,"nx":28,"ny":28,"refTime":"2024-05-18T09:00:00:Z","depth":0,"parameterNumber":2,"parameterNumberName":"U-component_of_WINDS"},"data":[0,0,0,0,0,0,0,0,0,0,0,0,0,0,0,0,0,0,0,0,0,0,0,0,0,0,0,0,0,0,0,0,0,0,0,0,0,0,0,0,0,0,0,0,0,0,0,0,0,0,0,0,0,0,0,0,0,0,0.3979,0.398,0,0.4062,0.4063,0.4064,0.4166,0.4168,0.4169,0.4171,0.4249,0.4249,0.425,0,0,0,0,0,0,0,0,0,0,0,0,0,0.3901,0.3902,0.3979,0.398,0.3981,0.4062,0.4063,0.4064,0.4166,0.4168,0.417,0.4171,0.4248,0.4249,0.425,0,0,0,0,0,0,0,0,0,0,0,0,0,0.3954,0.3902,0.3979,0.4042,0.4048,0.4061,0.4063,0.4064,0.4165,0.4168,0.417,0.4172,0.4248,0.4249,0.425,0.4206,0,0,0.4252,0.4253,0,0,0,0,0,0,0,0,0.3951,0.3957,0.4032,0.4038,0.4045,0.4106,0.4064,0.4111,0.4165,0.4121,0.4171,0.4174,0.4199,0.4204,0.4214,0.4209,0.4213,0.4252,0.4253,0.4253,0.4253,0,0,0,0,0,0,0,0.3947,0.3954,0.4012,0.4032,0.4041,0.4063,0.4073,0.4073,0.4145,0.4125,0.4132,0.4141,0.4203,0.4213,0.4216,0.4214,0.4252,0.4253,0.4254,0.4254,0.4175,0.4172,0,0,0,0,0,0,0.3935,0.395,0.4009,0.4014,0.4003,0.4063,0.4074,0.4084,0.4145,0.4157,0.4139,0.4145,0.421,0.4215,0.4219,0.417,0.4253,0.4254,0.4254,0.4177,0.4174,0.4171,0,0,0,0,0,0,0.3933,0.394,0.4006,0.3984,0.3995,0.4061,0.4071,0.4084,0.4094,0.4156,0.4168,0.4136,0.4212,0.4218,0.4208,0.4174,0.4254,0.4255,0.418,0.4176,0.4173,0.4072,0,0,0,0,0,0,0.3931,0.3938,0.3924,0.3983,0.3995,0.3995,0.407,0.4084,0.4096,0.4106,0.4157,0.4168,0.4215,0.4206,0.4209,0.4177,0.4256,0.4183,0.4178,0.4174,0.4079,0.4065,0.4054,0,0,0,0,0,0.3928,0.3892,0.3923,0.393,0.398,0.3993,0.4,0.4057,0.4093,0.4078,0.4117,0.4166,0.4178,0.4205,0.4208,0.4176,0.4186,0.418,0.4174,0.4084,0.4068,0.4054,0,0,0,0,0,0,0.3825,0.3901,0.3936,0.3919,0.3949,0.4011,0.3994,0.4038,0.4056,0.4064,0.4132,0.4142,0.4123,0.4149,0.4177,0.4135,0.4189,0.4183,0.4119,0.4104,0.4092,0.4085,0.4256,0,0,0,0,0,0.3801,0.3808,0.3873,0.3851,0.3865,0.3926,0.3934,0.3975,0.4008,0.4021,0.4059,0.4087,0.4097,0.4102,0.4115,0.4083,0.4094,0.4062,0.405,0.4039,0.4033,0.4016,0.4001,0.4152,0.4152,0.4152,0,0,0.375,0.3793,0.3793,0.3832,0.386,0.3863,0.3936,0.3937,0.3939,0.402,0.4014,0.4042,0.4078,0.4056,0.4048,0.4076,0.3994,0.4032,0.4023,0.4023,0.4008,0.3994,0.3981,0.4148,0.4149,0.4149,0,0,0.366,0.3693,0.3678,0.3705,0.3747,0.3788,0.3784,0.3838,0.3861,0.3856,0.3916,0.3918,0.3934,0.3956,0.397,0.3885,0.3929,0.3887,0.3821,0.3803,0.3791,0.3781,0.3748,0.3736,0.3881,0.3881,0.388,0,0.3591,0.3601,0.3664,0.3661,0.3675,0.3751,0.3734,0.3756,0.3798,0.3805,0.3837,0.3858,0.3887,0.387,0.3849,0.3858,0.3853,0.3881,0.3788,0.3778,0.377,0.3739,0.3727,0.3875,0.3876,0.3876,0.3877,0,0.3513,0.3518,0.35,0.3541,0.3554,0.3543,0.3603,0.3607,0.3646,0.3682,0.3674,0.3712,0.3732,0.3731,0.3769,0.3719,0.3735,0.3776,0.3831,0.3749,0.3721,0.371,0.3867,0.3869,0.3871,0.3872,0,0,0.336,0.3436,0.3428,0.3447,0.3498,0.3502,0.3494,0.3516,0.3517,0.3543,0.3536,0.3547,0.3585,0.36,0.3641,0.3625,0.3552,0.3668,0.367,0.3644,0.3496,0.3463,0.3449,0.3583,0.3581,0.3579,0.3492,0,0.3277,0.327,0.3326,0.3303,0.3307,0.3377,0.337,0.3398,0.3431,0.3437,0.3473,0.3479,0.3531,0.354,0.3527,0.3564,0.3523,0.3571,0.3573,0.3573,0.3561,0.3435,0.3401,0.3317,0.3482,0.348,0.3479,0,0.318,0.3203,0.318,0.323,0.3234,0.3226,0.325,0.3256,0.3288,0.3313,0.3329,0.3376,0.3368,0.3421,0.341,0.3441,0.3445,0.3463,0.3461,0.3462,0.352,0.3431,0.3293,0.3279,0.3463,0.3465,0.3466,0,0.3068,0.3093,0.3082,0.3096,0.3155,0.3147,0.3171,0.3207,0.3215,0.3235,0.3241,0.3258,0.3267,0.3278,0.3327,0.3362,0.3308,0.3366,0.3326,0.3325,0.3311,0.3311,0.3169,0.3316,0.3316,0.3317,0.3317,0,0.2969,0.2952,0.3032,0.3025,0.3007,0.307,0.3049,0.3079,0.311,0.3108,0.3169,0.3165,0.3232,0.3234,0.3272,0.3255,0.3259,0.3277,0.3287,0.3271,0.3268,0.3273,0.3279,0.3313,0.3314,0.3315,0.3315,0,0.2841,0.2895,0.2887,0.2943,0.2957,0.294,0.2988,0.2982,0.3019,0.3015,0.3017,0.3074,0.308,0.3131,0.3148,0.3173,0.3141,0.3163,0.313,0.3136,0.3093,0.3095,0.2948,0.2931,0.309,0.3088,0.3087,0,0.2773,0.2762,0.2817,0.2821,0.2842,0.2848,0.2858,0.2918,0.2925,0.296,0.2949,0.2961,0.2973,0.2978,0.3019,0.3032,0.3053,0.3001,0.3055,0.3038,0.305,0.3049,0.3047,0.2988,0.2986,0.2985,0.2984,0,0.2646,0.2673,0.2686,0.2707,0.2717,0.2736,0.2758,0.2757,0.2824,0.2828,0.2836,0.2845,0.2863,0.2872,0.2891,0.2913,0.2957,0.2966,0.2957,0.2939,0.292,0.2928,0.3096,0.2969,0.297,0.2971,0.2972,0.2973,0.2545,0.2537,0.2575,0.2586,0.2609,0.2629,0.2625,0.2662,0.2671,0.2691,0.2726,0.2727,0.2758,0.2789,0.2806,0.2807,0.2834,0.2821,0.2818,0.2813,0.2803,0.2921,0.2811,0.2811,0.2812,0.2812,0.2812,0,0.2419,0.2447,0.2457,0.2487,0.2495,0.2539,0.2566,0.2568,0.257,0.2596,0.2607,0.2614,0.2623,0.2665,0.2677,0.2669,0.269,0.267,0.267,0.2674,0.278,0.2785,0.2653,0.2653,0.2653,0.2653,0.2653,0.2653,0.2355,0.2343,0.2374,0.2373,0.2401,0.2405,0.2416,0.2432,0.2453,0.2459,0.2468,0.2496,0.2527,0.2542,0.2551,0.2563,0.2563,0.2536,0.2554,0.2652,0.2667,0.2681,0.2687,0.2536,0.2536,0.2448,0.2448,0.2447]},{"header":{"parameterUnit":"m.s-1","parameterCategory":1,"la1":30.2991,"la2":30.254,"lo1":-89.0895,"lo2":-89.0444,"dy":0.0017,"dx":0.0017,"nx":28,"ny":28,"refTime":"2024-05-18T09:00:00:Z","depth":0,"parameterNumber":3,"parameterNumberName":"V-component_of_WINDS"},"data":[0,0,0,0,0,0,0,0,0,0,0,0,0,0,0,0,0,0,0,0,0,0,0,0,0,0,0,0,0,0,0,0,0,0,0,0,0,0,0,0,0,0,0,0,0,0,0,0,0,0,0,0,0,0,0,0,0,0,4.3847,4.3847,0,4.3847,4.3847,4.3847,4.3777,4.3775,4.3773,4.3771,4.3771,4.3773,4.3774,0,0,0,0,0,0,0,0,0,0,0,0,0,4.3787,4.3789,4.3847,4.3847,4.3847,4.3847,4.3847,4.3847,4.3777,4.3775,4.3772,4.377,4.377,4.3772,4.3774,0,0,0,0,0,0,0,0,0,0,0,0,0,4.3803,4.3789,4.3847,4.3812,4.3809,4.3847,4.3847,4.3847,4.3777,4.3775,4.3772,4.3769,4.377,4.3772,4.3775,4.3846,0,0,4.3783,4.3784,0,0,0,0,0,0,0,0,4.3802,4.3805,4.3817,4.3815,4.3811,4.3809,4.3825,4.3846,4.3778,4.3789,4.3771,4.3768,4.3786,4.3787,4.3793,4.3846,4.3846,4.3783,4.3784,4.3785,4.3786,0,0,0,0,0,0,0,4.3801,4.3805,4.3847,4.3817,4.3814,4.3797,4.3796,4.3829,4.3803,4.3788,4.3783,4.3784,4.3784,4.3791,4.3792,4.3846,4.3783,4.3785,4.3787,4.3788,4.3957,4.396,0,0,0,0,0,0,4.3805,4.3804,4.3847,4.3847,4.38,4.38,4.3799,4.3812,4.3802,4.3798,4.3786,4.3781,4.3788,4.3789,4.3792,4.3874,4.3785,4.3788,4.3789,4.3954,4.3958,4.3961,0,0,0,0,0,0,4.3804,4.3809,4.3847,4.3824,4.3828,4.3804,4.3819,4.3814,4.3821,4.3801,4.3796,4.3798,4.3785,4.3788,4.3833,4.3873,4.3789,4.3791,4.395,4.3955,4.3959,4.4039,0,0,0,0,0,0,4.3802,4.3809,4.3836,4.3825,4.3829,4.3888,4.3822,4.3816,4.3825,4.3818,4.3811,4.3807,4.3784,4.3829,4.3836,4.3875,4.3793,4.3947,4.3953,4.3958,4.4032,4.4045,4.4056,0,0,0,0,0,4.38,4.3858,4.3837,4.3843,4.3862,4.389,4.3892,4.3864,4.3829,4.3855,4.3843,4.3807,4.3868,4.3835,4.3841,4.3882,4.3944,4.3951,4.3957,4.4027,4.4043,4.4056,0,0,0,0,0,0,4.3874,4.3856,4.3833,4.3889,4.3892,4.3878,4.391,4.3882,4.3894,4.3887,4.3851,4.385,4.39,4.3896,4.3859,4.395,4.39,4.3908,4.3951,4.3965,4.3977,4.3976,4.3795,0,0,0,0,0,4.3897,4.3921,4.3904,4.3956,4.3958,4.3935,4.3946,4.3924,4.3925,4.3926,4.3916,4.3919,4.3938,4.3952,4.3969,4.4032,4.4029,4.4063,4.4075,4.4085,4.4092,4.4125,4.4139,4.3983,4.3983,4.3982,0,0,4.3944,4.3937,4.3955,4.397,4.3969,4.3995,4.3936,4.3966,4.3985,4.393,4.3971,4.3965,4.3965,4.402,4.4043,4.4017,4.4135,4.4094,4.4102,4.4103,4.4133,4.4148,4.4161,4.3987,4.3986,4.3986,0,0,4.4042,4.404,4.4082,4.4083,4.4083,4.4067,4.4078,4.4069,4.4063,4.4103,4.4063,4.4085,4.412,4.4122,4.4127,4.4229,4.4196,4.4235,4.4297,4.4329,4.4342,4.4352,4.4387,4.44,4.4243,4.4243,4.4243,0,4.4101,4.4138,4.4108,4.414,4.4148,4.4101,4.4143,4.4146,4.4151,4.4158,4.4129,4.4172,4.4169,4.4222,4.4247,4.4254,4.4264,4.4235,4.4342,4.4353,4.4362,4.4395,4.4408,4.4247,4.4247,4.4246,4.4246,0,4.4209,4.4236,4.427,4.4277,4.4289,4.4326,4.4302,4.4318,4.4296,4.4283,4.4325,4.432,4.4335,4.4347,4.4325,4.4397,4.4381,4.4349,4.4297,4.4382,4.4412,4.4425,4.4254,4.4252,4.4251,4.425,0,0,4.4352,4.4343,4.4355,4.4358,4.4355,4.4375,4.4411,4.4425,4.4439,4.4446,4.4474,4.4505,4.4475,4.4481,4.446,4.4488,4.4567,4.4451,4.4451,4.4472,4.4645,4.4669,4.4684,4.4547,4.4549,4.4551,4.4645,0,4.4447,4.4507,4.4481,4.4543,4.4567,4.4523,4.4554,4.4556,4.4546,4.4565,4.4553,4.4575,4.4534,4.4537,4.4564,4.4552,4.4601,4.4545,4.4572,4.4573,4.4571,4.47,4.4725,4.4813,4.4657,4.4659,4.466,0,4.4565,4.4576,4.464,4.4633,4.4642,4.467,4.4682,4.4701,4.4702,4.4692,4.4701,4.4673,4.4707,4.4658,4.4705,4.4667,4.4677,4.4673,4.4676,4.4676,4.462,4.4701,4.4841,4.4854,4.4679,4.4677,4.4676,0,4.4661,4.4692,4.4734,4.4738,4.4731,4.4752,4.475,4.4749,4.4759,4.477,4.4776,4.4791,4.4798,4.481,4.4787,4.4754,4.4837,4.4786,4.4829,4.483,4.4847,4.4846,4.4988,4.4857,4.4857,4.4857,4.4856,0,4.4768,4.4809,4.4777,4.4803,4.4848,4.4819,4.4864,4.4857,4.4856,4.488,4.4844,4.4867,4.4836,4.4857,4.484,4.488,4.4885,4.4877,4.4872,4.4879,4.488,4.4884,4.4876,4.486,4.4859,4.4859,4.4858,0,4.4882,4.4863,4.4906,4.4896,4.4895,4.4928,4.4919,4.4943,4.4931,4.4961,4.4967,4.4948,4.497,4.4949,4.497,4.4958,4.5012,4.4999,4.5011,4.5007,4.5051,4.5046,4.5199,4.5217,4.5076,4.5077,4.5078,0,4.4951,4.4981,4.4975,4.4988,4.4989,4.5011,4.5021,4.4994,4.5007,4.5011,4.5034,4.5053,4.5067,4.5104,4.5092,4.5108,4.5093,4.5146,4.5095,4.5102,4.5092,4.509,4.5092,4.5155,4.5157,4.5158,4.516,0,4.5074,4.5064,4.508,4.5094,4.5108,4.5117,4.5124,4.5137,4.5109,4.5125,4.5147,4.5158,4.5179,4.5198,4.5211,4.5209,4.5179,4.5176,4.5186,4.5193,4.5199,4.5195,4.5037,4.5172,4.5171,4.517,4.5169,4.5169,4.5167,4.5191,4.5191,4.521,4.5213,4.522,4.5241,4.5232,4.525,4.5265,4.5248,4.5275,4.5276,4.5289,4.5291,4.5312,4.5289,4.5305,4.5309,4.5312,4.5318,4.5198,4.5314,4.5314,4.5313,4.5313,4.5313,0,4.5287,4.5285,4.5303,4.5313,4.5329,4.5301,4.5307,4.5322,4.5346,4.5349,4.5364,4.5389,4.5408,4.5397,4.5413,4.5432,4.5419,4.5437,4.5434,4.5434,4.5338,4.5326,4.5447,4.5447,4.5447,4.5447,4.5447,4.5447,4.5351,4.5391,4.538,4.5421,4.5419,4.5444,4.545,4.5456,4.5459,4.5489,4.5504,4.5497,4.5495,4.5511,4.5526,4.5523,4.553,4.5552,4.5544,4.5454,4.5441,4.5428,4.5417,4.5554,4.5555,4.5638,4.5638,4.5639]}]]